N122JM KMEV-KVNY

Flight info

Callsign N122JM
Flight time 1h 20m
Altitude 27000
Route WEESL WEESL1
Aircraft PC12/L-SDFGRWY/S

Departure

Time 2026-05-05 00:43
Airport Minden-Tahoe Airport (KMEV)

Arrival

Time 2026-05-05 02:04
Airport Van Nuys Airport (KVNY)
Time Latitude Longitude Altitude Speed Heading
2026-05-05 00:34 38.99827 -119.75604 4718 ft 0 kts 250°
2026-05-05 00:39 38.99827 -119.75605 4718 ft 2 kts 257°
2026-05-05 00:40 38.99859 -119.75611 4718 ft 9 kts 65°
2026-05-05 00:40 38.99865 -119.75528 4718 ft 14 kts 49°
2026-05-05 00:40 38.99919 -119.75417 4718 ft 12 kts 100°
2026-05-05 00:40 38.99822 -119.75368 4719 ft 20 kts 183°
2026-05-05 00:41 38.99660 -119.75370 4720 ft 26 kts 182°
2026-05-05 00:41 38.99477 -119.75366 4721 ft 23 kts 185°
2026-05-05 00:41 38.99328 -119.75369 4721 ft 24 kts 180°
2026-05-05 00:41 38.99280 -119.75368 4722 ft 6 kts 177°
2026-05-05 00:42 38.99205 -119.75316 4722 ft 18 kts 135°
2026-05-05 00:42 38.99183 -119.75191 4724 ft 19 kts
2026-05-05 00:42 38.99376 -119.75200 4721 ft 50 kts 360°
2026-05-05 00:42 38.99889 -119.75194 4720 ft 93 kts
2026-05-05 00:43 39.00571 -119.75157 4986 ft 103 kts
2026-05-05 00:43 39.01334 -119.74882 5190 ft 127 kts 13°
2026-05-05 00:43 39.02255 -119.74735 5525 ft 140 kts 358°
2026-05-05 00:43 39.03271 -119.74787 5882 ft 151 kts 354°
2026-05-05 00:44 39.04344 -119.74873 6308 ft 157 kts 354°
2026-05-05 00:44 39.05447 -119.74945 6725 ft 161 kts 355°
2026-05-05 00:44 39.06194 -119.74983 6993 ft 162 kts 356°
2026-05-05 00:44 39.07325 -119.75031 7381 ft 164 kts 357°
2026-05-05 00:45 39.08530 -119.75076 7455 ft 182 kts 357°
2026-05-05 00:45 39.10280 -119.75134 7491 ft 198 kts 358°
2026-05-05 00:45 39.11226 -119.75163 7668 ft 203 kts 358°
2026-05-05 00:46 39.12828 -119.75206 8091 ft 205 kts
2026-05-05 00:46 39.13785 -119.75062 8350 ft 206 kts 13°
2026-05-05 00:46 39.15119 -119.74402 8726 ft 206 kts 25°
2026-05-05 00:46 39.16388 -119.73648 9098 ft 206 kts 26°
2026-05-05 00:47 39.17504 -119.72981 9429 ft 206 kts 26°
2026-05-05 00:47 39.18800 -119.72204 9820 ft 205 kts 27°
2026-05-05 00:47 39.20049 -119.71389 10169 ft 203 kts 34°
2026-05-05 00:47 39.21096 -119.70192 10534 ft 201 kts 49°
2026-05-05 00:48 39.22024 -119.68851 10891 ft 200 kts 48°
2026-05-05 00:48 39.22970 -119.67529 11260 ft 200 kts 48°
2026-05-05 00:48 39.23916 -119.66211 11636 ft 199 kts 48°
2026-05-05 00:48 39.24854 -119.64896 12008 ft 198 kts 48°
2026-05-05 00:49 39.25775 -119.63582 12386 ft 196 kts 51°
2026-05-05 00:49 39.26364 -119.62011 12756 ft 198 kts 76°
2026-05-05 00:49 39.26269 -119.60221 13157 ft 207 kts 104°
2026-05-05 00:49 39.25437 -119.58669 13554 ft 221 kts 134°
2026-05-05 00:50 39.23981 -119.57907 13931 ft 235 kts 165°
2026-05-05 00:50 39.22352 -119.57628 14291 ft 236 kts 166°
2026-05-05 00:50 39.20741 -119.57309 14646 ft 237 kts 165°
2026-05-05 00:50 39.19231 -119.57002 14983 ft 238 kts 165°
2026-05-05 00:51 39.17660 -119.56686 15333 ft 239 kts 165°
2026-05-05 00:51 39.16009 -119.56360 15705 ft 240 kts 165°
2026-05-05 00:51 39.14359 -119.56037 16081 ft 240 kts 165°
2026-05-05 00:51 39.12709 -119.55716 16457 ft 239 kts 165°
2026-05-05 00:52 39.11061 -119.55395 16842 ft 239 kts 165°
2026-05-05 00:52 39.09417 -119.55077 17235 ft 238 kts 165°
2026-05-05 00:52 39.07777 -119.54759 17618 ft 238 kts 165°
2026-05-05 00:52 39.06141 -119.54442 18024 ft 238 kts 165°
2026-05-05 00:53 39.04527 -119.54128 18387 ft 236 kts 165°
2026-05-05 00:53 39.02906 -119.53815 18736 ft 235 kts 164°
2026-05-05 00:53 39.01294 -119.53502 19084 ft 234 kts 164°
2026-05-05 00:53 38.99684 -119.53190 19454 ft 233 kts 164°
2026-05-05 00:54 38.98081 -119.52879 19819 ft 232 kts 164°
2026-05-05 00:54 38.96496 -119.52573 20187 ft 230 kts 164°
2026-05-05 00:54 38.94919 -119.52268 20570 ft 228 kts 164°
2026-05-05 00:54 38.93356 -119.51966 20944 ft 226 kts 164°
2026-05-05 00:55 38.91802 -119.51665 21322 ft 225 kts 164°
2026-05-05 00:55 38.90260 -119.51367 21704 ft 223 kts 164°
2026-05-05 00:55 38.88726 -119.51069 22100 ft 223 kts 164°
2026-05-05 00:55 38.87199 -119.50774 22486 ft 221 kts 164°
2026-05-05 00:56 38.85685 -119.50482 22890 ft 219 kts 164°
2026-05-05 00:56 38.84173 -119.50190 23315 ft 220 kts 164°
2026-05-05 00:56 38.82658 -119.49896 23693 ft 220 kts 164°
2026-05-05 00:56 38.81145 -119.49604 24045 ft 220 kts 164°
2026-05-05 00:57 38.79632 -119.49312 24390 ft 219 kts 164°
2026-05-05 00:57 38.78151 -119.49028 24725 ft 218 kts 164°
2026-05-05 00:57 38.76633 -119.48734 24969 ft 223 kts 164°
2026-05-05 00:57 38.75084 -119.48433 25205 ft 227 kts 164°
2026-05-05 00:58 38.73514 -119.48131 25447 ft 230 kts 165°
2026-05-05 00:58 38.71918 -119.47825 25692 ft 233 kts 165°
2026-05-05 00:58 38.70299 -119.47515 25948 ft 235 kts 165°
2026-05-05 00:58 38.68675 -119.47205 26198 ft 237 kts 165°
2026-05-05 00:59 38.67056 -119.46896 26453 ft 238 kts 165°
2026-05-05 00:59 38.65399 -119.46579 26716 ft 238 kts 165°
2026-05-05 00:59 38.63767 -119.46266 26856 ft 244 kts 165°
2026-05-05 00:59 38.62062 -119.45934 26891 ft 252 kts 165°
2026-05-05 01:00 38.60301 -119.45596 26901 ft 259 kts 165°
2026-05-05 01:00 38.58497 -119.45253 26907 ft 263 kts 165°
2026-05-05 01:00 38.56670 -119.44906 26916 ft 267 kts 166°
2026-05-05 01:00 38.54826 -119.44556 26915 ft 268 kts 166°
2026-05-05 01:01 38.52972 -119.44204 26922 ft 270 kts 166°
2026-05-05 01:01 38.51104 -119.43847 26933 ft 272 kts 166°
2026-05-05 01:01 38.49221 -119.43486 26936 ft 274 kts 166°
2026-05-05 01:01 38.47332 -119.43124 26937 ft 275 kts 166°
2026-05-05 01:02 38.45440 -119.42763 26939 ft 275 kts 166°
2026-05-05 01:02 38.43546 -119.42402 26935 ft 275 kts 166°
2026-05-05 01:02 38.41652 -119.42041 26949 ft 275 kts 166°
2026-05-05 01:02 38.39778 -119.41684 26951 ft 275 kts 166°
2026-05-05 01:03 38.37863 -119.41320 26945 ft 275 kts 166°
2026-05-05 01:03 38.35992 -119.40964 26951 ft 274 kts 166°
2026-05-05 01:03 38.34111 -119.40606 26955 ft 274 kts 166°
2026-05-05 01:03 38.32221 -119.40246 26955 ft 274 kts 166°
2026-05-05 01:04 38.30334 -119.39887 26958 ft 274 kts 166°
2026-05-05 01:04 38.26553 -119.39168 26956 ft 275 kts 166°
2026-05-05 01:04 38.24662 -119.38809 26956 ft 275 kts 166°
2026-05-05 01:05 38.22773 -119.38450 26963 ft 275 kts 166°
2026-05-05 01:05 38.20874 -119.38090 26960 ft 275 kts 166°
2026-05-05 01:05 38.18981 -119.37731 26963 ft 275 kts 166°
2026-05-05 01:05 38.17106 -119.37376 26963 ft 276 kts 166°
2026-05-05 01:06 38.15184 -119.37012 26965 ft 276 kts 166°
2026-05-05 01:06 38.13318 -119.36659 26963 ft 275 kts 166°
2026-05-05 01:06 38.11413 -119.36299 26965 ft 276 kts 165°
2026-05-05 01:06 38.09516 -119.35940 26956 ft 275 kts 165°
2026-05-05 01:07 38.07617 -119.35581 26962 ft 275 kts 165°
2026-05-05 01:07 38.05724 -119.35223 26969 ft 276 kts 165°
2026-05-05 01:07 38.03817 -119.34863 26969 ft 277 kts 165°
2026-05-05 01:07 38.01910 -119.34503 26965 ft 277 kts 165°
2026-05-05 01:08 38.00005 -119.34144 26965 ft 277 kts 165°
2026-05-05 01:08 37.98097 -119.33784 26965 ft 277 kts 165°
2026-05-05 01:08 37.96595 -119.33501 26973 ft 278 kts 165°
2026-05-05 01:08 37.94866 -119.33174 26960 ft 277 kts 165°
2026-05-05 01:09 37.94244 -119.33057 26961 ft 277 kts 165°
2026-05-05 01:09 37.93016 -119.32826 26963 ft 277 kts 165°
2026-05-05 01:09 37.91105 -119.32466 26969 ft 278 kts 165°
2026-05-05 01:09 37.89187 -119.32105 26965 ft 278 kts 165°
2026-05-05 01:10 37.87276 -119.31746 26968 ft 278 kts 165°
2026-05-05 01:10 37.85354 -119.31384 26978 ft 279 kts 165°
2026-05-05 01:10 37.83428 -119.31022 26975 ft 280 kts 165°
2026-05-05 01:10 37.81494 -119.30659 26986 ft 282 kts 165°
2026-05-05 01:11 37.79550 -119.30294 26996 ft 283 kts 165°
2026-05-05 01:11 37.77599 -119.29929 26993 ft 284 kts 165°
2026-05-05 01:11 37.75666 -119.29568 26977 ft 283 kts 166°
2026-05-05 01:11 37.73717 -119.29205 26974 ft 283 kts 166°
2026-05-05 01:12 37.71772 -119.28842 26981 ft 282 kts 165°
2026-05-05 01:12 37.69827 -119.28478 26984 ft 283 kts 165°
2026-05-05 01:12 37.67877 -119.28113 26986 ft 283 kts 165°
2026-05-05 01:12 37.65923 -119.27748 26984 ft 283 kts 165°
2026-05-05 01:13 37.63972 -119.27384 26984 ft 284 kts 165°
2026-05-05 01:13 37.62024 -119.27021 26984 ft 283 kts 166°
2026-05-05 01:13 37.60080 -119.26659 26985 ft 282 kts 165°
2026-05-05 01:13 37.58139 -119.26297 26986 ft 282 kts 165°
2026-05-05 01:14 37.56199 -119.25936 26985 ft 281 kts 165°
2026-05-05 01:14 37.54264 -119.25575 26987 ft 281 kts 165°
2026-05-05 01:14 37.52329 -119.25215 26988 ft 281 kts 166°
2026-05-05 01:14 37.50420 -119.24860 26992 ft 280 kts 166°
2026-05-05 01:15 37.48490 -119.24501 26995 ft 280 kts 166°
2026-05-05 01:15 37.46554 -119.24140 26994 ft 281 kts 166°
2026-05-05 01:15 37.44949 -119.23842 26998 ft 281 kts 166°
2026-05-05 01:15 37.43011 -119.23482 26992 ft 280 kts 166°
2026-05-05 01:16 37.41081 -119.23125 26992 ft 280 kts 166°
2026-05-05 01:16 37.39154 -119.22768 26996 ft 280 kts 166°
2026-05-05 01:16 37.37224 -119.22410 26994 ft 279 kts 166°
2026-05-05 01:16 37.35304 -119.22054 26997 ft 279 kts 166°
2026-05-05 01:17 37.33385 -119.21699 26997 ft 279 kts 168°
2026-05-05 01:17 37.31483 -119.21380 26999 ft 279 kts 168°
2026-05-05 01:17 37.29589 -119.21066 27000 ft 278 kts 168°
2026-05-05 01:17 37.27668 -119.20724 26997 ft 278 kts 167°
2026-05-05 01:18 37.25757 -119.20366 27001 ft 277 kts 167°
2026-05-05 01:18 37.25017 -119.20224 27003 ft 277 kts 167°
2026-05-05 01:18 37.23108 -119.19857 27002 ft 277 kts 167°
2026-05-05 01:18 37.21200 -119.19492 27001 ft 277 kts 167°
2026-05-05 01:19 37.19291 -119.19131 27005 ft 277 kts 168°
2026-05-05 01:19 37.17387 -119.18775 27004 ft 277 kts 168°
2026-05-05 01:19 37.15476 -119.18419 27004 ft 277 kts 168°
2026-05-05 01:19 37.13571 -119.18067 27005 ft 277 kts 168°
2026-05-05 01:20 37.11668 -119.17715 27002 ft 276 kts 168°
2026-05-05 01:20 37.09764 -119.17364 27007 ft 277 kts 168°
2026-05-05 01:20 37.07859 -119.17013 27006 ft 277 kts 169°
2026-05-05 01:20 37.05980 -119.16668 27000 ft 276 kts 169°
2026-05-05 01:21 37.04055 -119.16314 27001 ft 276 kts 169°
2026-05-05 01:21 37.02178 -119.15970 27000 ft 276 kts 169°
2026-05-05 01:21 37.01396 -119.15826 26998 ft 275 kts 169°
2026-05-05 01:21 36.99502 -119.15478 27002 ft 275 kts 169°
2026-05-05 01:22 36.97610 -119.15131 27005 ft 275 kts 170°
2026-05-05 01:22 36.95719 -119.14784 27006 ft 274 kts 170°
2026-05-05 01:22 36.93830 -119.14438 27004 ft 274 kts 170°
2026-05-05 01:22 36.92080 -119.14117 27005 ft 274 kts 170°
2026-05-05 01:23 36.90194 -119.13772 27003 ft 274 kts 171°
2026-05-05 01:23 36.88311 -119.13427 27005 ft 273 kts 171°
2026-05-05 01:23 36.86426 -119.13082 27003 ft 273 kts 171°
2026-05-05 01:23 36.84568 -119.12742 27004 ft 273 kts 171°
2026-05-05 01:24 36.82689 -119.12399 27004 ft 272 kts 171°
2026-05-05 01:24 36.80818 -119.12057 27004 ft 272 kts 172°
2026-05-05 01:24 36.78950 -119.11715 27001 ft 271 kts 172°
2026-05-05 01:24 36.77081 -119.11373 27004 ft 271 kts 172°
2026-05-05 01:25 36.75216 -119.11033 27004 ft 271 kts 172°
2026-05-05 01:25 36.73353 -119.10693 27004 ft 271 kts 172°
2026-05-05 01:25 36.71516 -119.10358 27007 ft 270 kts 173°
2026-05-05 01:25 36.69657 -119.10019 27005 ft 270 kts 173°
2026-05-05 01:26 36.67801 -119.09682 27006 ft 269 kts 173°
2026-05-05 01:26 36.65942 -119.09343 27009 ft 269 kts 173°
2026-05-05 01:26 36.64088 -119.09006 27006 ft 269 kts 173°
2026-05-05 01:26 36.62239 -119.08670 27006 ft 269 kts 174°
2026-05-05 01:27 36.60387 -119.08334 27003 ft 269 kts 174°
2026-05-05 01:27 36.58529 -119.07997 27005 ft 268 kts 174°
2026-05-05 01:27 36.56677 -119.07661 27006 ft 268 kts 174°
2026-05-05 01:27 36.54836 -119.07327 27001 ft 268 kts 174°
2026-05-05 01:28 36.53014 -119.06997 27005 ft 267 kts 175°
2026-05-05 01:28 36.51174 -119.06663 27004 ft 267 kts 175°
2026-05-05 01:28 36.49338 -119.06331 27003 ft 266 kts 175°
2026-05-05 01:28 36.47500 -119.05998 27005 ft 266 kts 175°
2026-05-05 01:29 36.45668 -119.05666 27007 ft 266 kts 175°
2026-05-05 01:29 36.43837 -119.05336 27007 ft 266 kts 176°
2026-05-05 01:29 36.42007 -119.05005 27007 ft 265 kts 176°
2026-05-05 01:29 36.40181 -119.04675 27008 ft 265 kts 176°
2026-05-05 01:30 36.38581 -119.04386 27007 ft 264 kts 176°
2026-05-05 01:30 36.36784 -119.04061 27003 ft 264 kts 176°
2026-05-05 01:30 36.34967 -119.03733 27005 ft 263 kts 176°
2026-05-05 01:30 36.33161 -119.03407 27004 ft 263 kts 176°
2026-05-05 01:31 36.31354 -119.03082 27004 ft 262 kts 177°
2026-05-05 01:31 36.29548 -119.02756 27005 ft 261 kts 177°
2026-05-05 01:31 36.27745 -119.02431 27008 ft 261 kts 177°
2026-05-05 01:31 36.25948 -119.02108 27010 ft 261 kts 177°
2026-05-05 01:32 36.24156 -119.01785 27009 ft 260 kts 178°
2026-05-05 01:32 36.22361 -119.01462 27012 ft 260 kts 178°
2026-05-05 01:32 36.21174 -119.01248 27015 ft 260 kts 178°
2026-05-05 01:32 36.19382 -119.00925 27012 ft 260 kts 178°
2026-05-05 01:33 36.17596 -119.00604 27010 ft 259 kts 178°
2026-05-05 01:33 36.15230 -119.00179 27012 ft 258 kts 178°
2026-05-05 01:33 36.13458 -118.99860 27011 ft 258 kts 178°
2026-05-05 01:33 36.12251 -118.99644 27011 ft 257 kts 179°
2026-05-05 01:34 36.10503 -118.99330 27016 ft 257 kts 179°
2026-05-05 01:34 36.08742 -118.99014 27013 ft 256 kts 179°
2026-05-05 01:34 36.06998 -118.98702 27016 ft 255 kts 179°
2026-05-05 01:34 36.05242 -118.98387 27013 ft 255 kts 179°
2026-05-05 01:35 36.03492 -118.98074 27014 ft 254 kts 179°
2026-05-05 01:35 36.01746 -118.97761 27017 ft 253 kts 179°
2026-05-05 01:35 36.00004 -118.97450 27012 ft 253 kts 180°
2026-05-05 01:35 35.98525 -118.97185 27015 ft 252 kts 180°
2026-05-05 01:36 35.97101 -118.96931 27016 ft 252 kts 180°
2026-05-05 01:36 35.95368 -118.96622 27015 ft 251 kts 180°
2026-05-05 01:36 35.93640 -118.96313 27012 ft 251 kts 180°
2026-05-05 01:36 35.91912 -118.96005 27011 ft 250 kts 180°
2026-05-05 01:37 35.90189 -118.95698 27011 ft 250 kts 180°
2026-05-05 01:37 35.88464 -118.95391 27009 ft 250 kts 180°
2026-05-05 01:37 35.86746 -118.95085 27005 ft 249 kts 180°
2026-05-05 01:37 35.85031 -118.94779 27004 ft 249 kts 180°
2026-05-05 01:38 35.83341 -118.94478 27003 ft 249 kts 180°
2026-05-05 01:38 35.81630 -118.94174 26997 ft 248 kts 180°
2026-05-05 01:38 35.79920 -118.93870 26988 ft 248 kts 180°
2026-05-05 01:38 35.78212 -118.93565 26987 ft 247 kts 180°
2026-05-05 01:39 35.76506 -118.93262 26988 ft 247 kts 180°
2026-05-05 01:39 35.74803 -118.92959 26988 ft 247 kts 181°
2026-05-05 01:39 35.73105 -118.92657 26988 ft 246 kts 181°
2026-05-05 01:39 35.71408 -118.92356 26983 ft 246 kts 181°
2026-05-05 01:40 35.69713 -118.92055 26984 ft 246 kts 181°
2026-05-05 01:40 35.68018 -118.91755 26982 ft 246 kts 181°
2026-05-05 01:40 35.66344 -118.91458 26973 ft 246 kts 181°
2026-05-05 01:40 35.64655 -118.91159 26973 ft 245 kts 181°
2026-05-05 01:41 35.62968 -118.90860 26972 ft 245 kts 181°
2026-05-05 01:41 35.62714 -118.90815 26971 ft 245 kts 181°
2026-05-05 01:41 35.61506 -118.90601 26973 ft 245 kts 181°
2026-05-05 01:41 35.59819 -118.90303 26971 ft 244 kts 181°
2026-05-05 01:42 35.58114 -118.90006 26679 ft 254 kts 181°
2026-05-05 01:42 35.56346 -118.89705 26359 ft 257 kts 180°
2026-05-05 01:42 35.54574 -118.89396 26032 ft 256 kts 180°
2026-05-05 01:42 35.52832 -118.89087 25717 ft 255 kts 180°
2026-05-05 01:43 35.51075 -118.88775 25402 ft 255 kts 179°
2026-05-05 01:43 35.49322 -118.88492 25076 ft 254 kts 181°
2026-05-05 01:43 35.47568 -118.88223 24742 ft 254 kts 180°
2026-05-05 01:43 35.45807 -118.87926 24417 ft 256 kts 179°
2026-05-05 01:44 35.44043 -118.87606 24086 ft 257 kts 178°
2026-05-05 01:44 35.42267 -118.87274 23765 ft 257 kts 177°
2026-05-05 01:44 35.40751 -118.86990 23478 ft 258 kts 177°
2026-05-05 01:44 35.38977 -118.86663 23091 ft 258 kts 177°
2026-05-05 01:45 35.37198 -118.86340 22703 ft 259 kts 177°
2026-05-05 01:45 35.35416 -118.86020 22329 ft 259 kts 177°
2026-05-05 01:45 35.33631 -118.85702 21950 ft 259 kts 177°
2026-05-05 01:45 35.31848 -118.85387 21580 ft 259 kts 176°
2026-05-05 01:46 35.30085 -118.85076 21217 ft 259 kts 176°
2026-05-05 01:46 35.28442 -118.84787 20889 ft 259 kts 176°
2026-05-05 01:46 35.26658 -118.84474 20533 ft 259 kts 176°
2026-05-05 01:46 35.24875 -118.84161 20178 ft 259 kts 176°
2026-05-05 01:47 35.23091 -118.83848 19829 ft 259 kts 176°
2026-05-05 01:47 35.21307 -118.83536 19486 ft 259 kts 176°
2026-05-05 01:47 35.19519 -118.83222 19146 ft 259 kts 176°
2026-05-05 01:47 35.17735 -118.82910 18810 ft 259 kts 175°
2026-05-05 01:48 35.15951 -118.82597 18485 ft 259 kts 175°
2026-05-05 01:48 35.15285 -118.82481 18362 ft 259 kts 175°
2026-05-05 01:48 35.14182 -118.82288 18146 ft 259 kts 175°
2026-05-05 01:48 35.12397 -118.81975 17771 ft 259 kts 175°
2026-05-05 01:49 35.11280 -118.81780 17538 ft 259 kts 175°
2026-05-05 01:49 35.09494 -118.81467 17171 ft 259 kts 175°
2026-05-05 01:49 35.07711 -118.81155 16808 ft 259 kts 175°
2026-05-05 01:49 35.05923 -118.80843 16443 ft 259 kts 175°
2026-05-05 01:50 35.04133 -118.80531 16087 ft 259 kts 175°
2026-05-05 01:50 35.02347 -118.80220 15733 ft 259 kts 175°
2026-05-05 01:50 35.00564 -118.79909 15384 ft 259 kts 175°
2026-05-05 01:50 34.98785 -118.79599 15043 ft 259 kts 175°
2026-05-05 01:51 34.97000 -118.79288 14701 ft 259 kts 175°
2026-05-05 01:51 34.95234 -118.78981 14367 ft 259 kts 175°
2026-05-05 01:51 34.93450 -118.78670 14031 ft 259 kts 175°
2026-05-05 01:51 34.91717 -118.78368 13707 ft 259 kts 175°
2026-05-05 01:52 34.89925 -118.78056 13329 ft 259 kts 175°
2026-05-05 01:52 34.88253 -118.77740 12983 ft 259 kts 172°
2026-05-05 01:52 34.86518 -118.77122 12616 ft 260 kts 163°
2026-05-05 01:52 34.84798 -118.76411 12270 ft 260 kts 165°
2026-05-05 01:53 34.83070 -118.75748 11905 ft 260 kts 166°
2026-05-05 01:53 34.81341 -118.75092 11551 ft 260 kts 166°
2026-05-05 01:53 34.79619 -118.74432 11199 ft 259 kts 165°
2026-05-05 01:53 34.77926 -118.73662 10857 ft 260 kts 160°
2026-05-05 01:54 34.76257 -118.72791 10518 ft 260 kts 160°
2026-05-05 01:54 34.74617 -118.71939 10187 ft 259 kts 160°
2026-05-05 01:54 34.72966 -118.71089 9854 ft 256 kts 160°
2026-05-05 01:54 34.71329 -118.70247 9498 ft 254 kts 160°
2026-05-05 01:55 34.69705 -118.69410 9134 ft 253 kts 160°
2026-05-05 01:55 34.68102 -118.68585 8997 ft 244 kts 159°
2026-05-05 01:55 34.66567 -118.67790 8974 ft 235 kts 160°
2026-05-05 01:55 34.65130 -118.67045 8954 ft 230 kts 161°
2026-05-05 01:56 34.63640 -118.66254 8956 ft 239 kts 159°
2026-05-05 01:56 34.62104 -118.65415 8959 ft 245 kts 159°
2026-05-05 01:56 34.60534 -118.64553 8961 ft 249 kts 158°
2026-05-05 01:56 34.58946 -118.63684 8963 ft 251 kts 160°
2026-05-05 01:57 34.57345 -118.62816 8963 ft 252 kts 160°
2026-05-05 01:57 34.55730 -118.61985 8909 ft 254 kts 160°
2026-05-05 01:57 34.54089 -118.61164 8612 ft 261 kts 161°
2026-05-05 01:57 34.52419 -118.60334 8310 ft 254 kts 162°
2026-05-05 01:58 34.50817 -118.59540 8011 ft 245 kts 163°
2026-05-05 01:58 34.49262 -118.58768 7708 ft 238 kts 162°
2026-05-05 01:58 34.47748 -118.58001 7412 ft 233 kts 162°
2026-05-05 01:58 34.46258 -118.57243 7122 ft 231 kts 161°
2026-05-05 01:59 34.44781 -118.56482 6828 ft 230 kts 161°
2026-05-05 01:59 34.43502 -118.55827 6572 ft 228 kts 162°
2026-05-05 01:59 34.42044 -118.55073 6276 ft 227 kts 161°
2026-05-05 01:59 34.40596 -118.54319 5970 ft 225 kts 161°
2026-05-05 02:00 34.39138 -118.53676 5662 ft 222 kts 169°
2026-05-05 02:00 34.37636 -118.53250 5362 ft 220 kts 172°
2026-05-05 02:00 34.36217 -118.52903 5083 ft 219 kts 172°
2026-05-05 02:00 34.34806 -118.52486 5049 ft 207 kts 166°
2026-05-05 02:01 34.33480 -118.51901 5019 ft 198 kts 162°
2026-05-05 02:01 34.32218 -118.51283 4899 ft 194 kts 161°
2026-05-05 02:01 34.31007 -118.50672 4665 ft 177 kts 165°
2026-05-05 02:01 34.29926 -118.50119 4423 ft 162 kts 167°
2026-05-05 02:02 34.28860 -118.49769 4044 ft 159 kts 175°
2026-05-05 02:02 34.27764 -118.49595 3596 ft 159 kts 183°
2026-05-05 02:02 34.26643 -118.49496 3064 ft 163 kts 178°
2026-05-05 02:02 34.25514 -118.49370 2609 ft 162 kts 181°
2026-05-05 02:03 34.24409 -118.49291 2209 ft 156 kts 181°
2026-05-05 02:03 34.23375 -118.49241 1873 ft 139 kts 182°
2026-05-05 02:03 34.22498 -118.49147 1357 ft 117 kts 198°
2026-05-05 02:03 34.21723 -118.49110 892 ft 105 kts 185°
2026-05-05 02:04 34.21117 -118.49051 807 ft 72 kts 175°
2026-05-05 02:04 34.20715 -118.49026 807 ft 42 kts 174°
2026-05-05 02:04 34.20472 -118.49038 807 ft 21 kts 196°
2026-05-05 02:04 34.20403 -118.49059 807 ft 5 kts 200°
2026-05-05 02:05 34.20345 -118.49096 807 ft 10 kts 217°
2026-05-05 02:05 34.20304 -118.49136 807 ft 5 kts 230°
2026-05-05 02:05 34.20313 -118.49149 807 ft 0 kts